Погода в Мариуполе

Погода в Мариуполе : погода сейчас, прогноз погоды и архив. Всё, что Вы хотите узнать о погоде в Мариуполе!

Поиск расширенной информации на нашем сайте:

Другие новости

Новости СМИ2

Главная страница сайта

Новости сайта

02.10.2013

Напоминаем, что на нашем новом сайте вы можете получить высокодетализированные прогнозы погоды по пунктам России, СНГ и мира (включающие важные для авиации метеовеличины, такие как направление и скорость ветра, видимость, явления погоды, количество и форма облачности, нижняя и верхняя граница облачности), а также ознакомиться с разнообразными материалами по авиационной метеорологии и подборкой полезных ссылок на эту тему.

Сайт Метеоцентр.Азия посвящён разработке технологий оптимизации авиаметеорологического обслуживания, включая проектирование и перспективное создание нескольких автоматизированных авиаметеорологических систем:
- система выпуска высокодетальных прогностических карт явлений погоды для нижнего воздушного пространства по России и ближнему зарубежью;
- система верификации прогнозов TAF (выпускаемых синоптиками официальных АМСГ РФ и ближнего зарубежья) и AUTOTAF (выпускаемых сайтом Метеоцентр.Азия) - выявление ошибок, онлайн-сопоставление с фактической погодой METAR, автоматическое внесение коррективов в прогнозы при резком отклонении фактической погоды от прогноза, подсчёт оправдываемости прогнозов по элементам и в целом;
- система обработки, анализа и отображения авиаметеорологической информации для применения провайдерами метеорологической информации.

Рекомендуем: Деревянные окна

Погода в Мариуполе - сегодня

Время (UTC), дата Ветер
(°,м/с) 
Видим.   Явления Облачность Т
(°С)
Тd
(°С)
f(%) Тe
(°С)
Pmin
(гПа)
dP
(гПа)
Po
(мм)
O2
(г/м3)
Тmin Tmax R s Состояние
почвы
18 27.03.17 290 (З) 20000 м  {ливн. осадки}  3/0 средняя 
[Ac lent]
+4.1 -0.8 70 +2  1012.4  2.2  753  299    +9.7  0.0     
21 27.03.17 290 (З) 20000 м    ясно 
+1.9 -0.3 85 -1  1013.5  754  302           
00 28.03.17 290 (З) 20000 м    ясно 
+1.4 -0.9 85 -2  1013.9  0.4  754  302           
03 28.03.17 290 (З) 20000 м    ясно 
+1.6 -0.6 85 -2  1013.2  -0.7  753  302           
06 28.03.17 270 (З) 20000 м    8/8 1500 м 
[Sc]
+4.4 +1.3 80 +1  1012.1  -1  753  298  +1         
09 28.03.17 250 (З) 10  20000 м    6/0 верхняя 
[Ci]
+11 +5.1 67 +9  1009  -2.9  750  290           
12 28.03.17 250 (З) 12{18}  20000 м    8/4 1000 м кучево-дожд., средняя 
[Cb cap|Ac trans]
+12.3 +5.7 64 +10  1006.3  -2.6  749  288           
15 28.03.17 250 (З) 11  20000 м  {ливн. осадки}  8/8 1140 м кучево-дожд. 
[Cb cap]
+12.2 +5 61 +10  1005  -1.3  748  288           
18 28.03.17 290 (З) 20000 м  {ливн. осадки}  5/0 средняя 
[Ac cuf]
+12.7 +4.4 57 +12  1007.7  2.7  750  288    +12.9  0.0     
21 28.03.17 340 (С) 20000 м    ясно 
+8.5 -2.9 44 +7  1012.5  4.6  753  295           
00 29.03.17 290 (З) 20000 м    ясно 
+5 -4.9 49 +4  1015.8  3.2  755  299           
03 29.03.17 290 (З) 10 км    ясно 
+1.8 -5.1 60 1016.8  0.9  756  303           
06 29.03.17 270 (З) 20000 м    ясно 
+7.8 -2.2 49 +7  1018.5  1.8  757  297  +1.4         
09 29.03.17 230 (ЮЗ) 20000 м    ясно 
+12.1 -1.2 40 +10  1018.3  757  292           
12 29.03.17 230 (ЮЗ) 10  20000 м    ясно 
+12.2 -0.3 42 +10  1016.9  -1.4  756  292           
15 29.03.17 250 (З) 20000 м    4/0 верхняя 
[Cc]
+11.9 +1.2 48 +10  1016.2  -0.7  756  292           
18 29.03.17 270 (З) 20000 м    ясно 
+7.5 +5.9 90 +5  1016.8  0.5  756  296    +13.3       
21 29.03.17 250 (З) 10 км    8/8 360 м 
[Sc]
+7 +6.3 95 +5  1016.3  -0.5  756  296           
00 30.03.17 230 (ЮЗ) 4000 м  дымка  8/8 400 м 
[Sc]
+6.6 +5.5 93 +4  1014.1  -2.2  754  296           
03 30.03.17 250 (З) 4000 м  дымка  9/6 660 м средняя 
[Sc|Ac trans]
+6.7 +5.6 93 +4  1012.2  -1.9  753  295           
06 30.03.17 250 (З) 10 км  {ливн. осадки}  9/5 600 м средняя 
[Sc|Ac trans]
+6.3 +3.2 81 +3  1012.4  0.2  753  296  +5.9    0.0     
09 30.03.17 290 (З) 10 км  {ливн. осадки}  8/4 600 м средняя 
[Cu hum|Ac trans]
+14.9 +4.3 49 +14  1012.3  0.1  753  287           
12 30.03.17 320 (СЗ) 20000 м  {ливн. осадки}  8/8 600 м 
[Cu hum]
+16.3 -1.2 30 +16  1013.1  0.8  754  287      0.0     
15 30.03.17 340 (С) 20000 м    4/3 600 м средняя 
[Sc|Ac trans]
+13 -3.1 32 +12  1016.4  3.2  756  291           
18 30.03.17 020 (С) 20000 м    ясно 
+5.4 -6.4 42 +2  1023.1  6.4  761  301    +17.1  0.0     
Время (UTC), дата Ветер
(°,м/с) 
Видим.   Явления Облачность Т
(°С)
Тd
(°С)
f(%) Тe
(°С)
Pmin
(гПа)
dP
(гПа)
Po
(мм)
O2
(г/м3)
Тmin Tmax R s Состояние
почвы

Для получения пояснительной информации подведите курсор к названию столбца.

ПОГОДА в Мариуполе - архив

Всё, что Вы хотите узнать о погоде в Мариуполе - удобно и подробно!

Выберите нужную дату (начиная с 1 января 2015* года) и нажмите кнопку "Найти".
Будут отображены архивные сводки погоды по пункту Мариуполь, начиная с указанной даты.


Отображать данные в формате CSV (для использования в таблицах Excel)


Внимание! Наш архив погоды предназначен исключительно для личного некоммерческого использования в познавательных целях. Если Вам необходимы официальные справки о состоянии погоды (для производственных, юридических, коммерческих и т.п. целей), обращайтесь в органы Росгидромета.

*Примечание: данная дата относится к архиву по метеостанциям СССР (Россия, СНГ, Балтия).
Архив по метеостанциям Зарубежной Европы и Азии (кроме Китая) хранится 10 дней, по другим регионам земного шара (Китай, Африка, Америка, Австралия, Океания) - 1 день.

Мариуполь - район местоположения метеостанции


Название, широта, долгота, высота метеостанции:
Мариуполь (город) 47°ш. 37.5°д. 70 м над ур. моря [Украина]

Дополнительная информация

В oтличие oт бoльшинства пoгoдных сайтoв мы публикуем пoдрoбную метеoинфoрмацию в детальнoм прoфессиoнальнoм фoрмате.

Характеристики температуры и влажнoсти вoздуха измеряются на высoте 2 м в тени вдали oт зданий и деревьев.
Скoрoсть ветра измеряется на высoте 10 м (на урoвне рoста челoвека скoрoсть ветра ниже в 1.5-2 раза). Если метеoстанция нахoдится в гoрoде или в лесу, тo скoрoсть ветра занижена на 2-4 м/с пo сравнению с oткрытым местoм. Скoрoсть ветра над акватoриями крупных рек и oзёр, а также на вершинах хoлмoв на 2-5 м/с выше, чем в oбычных услoвиях.
Атмoсфернoе давление в разных тoчках местнoсти мoжет значительнo oтличаться oт давления на метеoстанции, в зависимoсти oт услoвий рельефа (при пoдъёме на 10 м давление пoнижается примернo на 1 мм рт.ст.).